FW2602 Weather Reports


Display with metric or nautical units.
time (UTC)temp
F
wind
direction
speed
MPH
gust
MPH
rain 1hr
in
rain 24hr
in
rain mn
in
humidity
%
barometer
mb
20260905154527 67 127 1.0 6.0 0.00 0.00 0.00 78 1011.2
20260905154013 67 277 2.0 5.0 0.00 0.00 0.00 79 1011.3
20260905153518 66 205 0.0 5.0 0.00 0.00 0.00 79 1011.3
20260905153019 66 295 0.0 5.0 0.00 0.00 0.00 80 1011.3
20260905152528 66 297 0.0 4.0 0.00 0.00 0.00 82 1011.4
20260905152013 65 112 0.0 2.0 0.00 0.00 0.00 81 1011.3
20260905151520 64 108 0.0 2.0 0.00 0.00 0.00 82 1011.5
20260905151027 64 127 0.0 5.0 0.00 0.00 0.00 80 1011.5
20260905150511 65 314 0.0 3.0 0.00 0.00 0.00 83 1011.4
20260905150016 64 250 1.0 7.0 0.00 0.00 0.00 83 1011.5
20260905145525 64 295 2.0 7.0 0.00 0.00 0.00 81 1011.5
20260905145012 64 294 0.0 4.0 0.00 0.00 0.00 82 1011.4
20260905144521 65 259 0.0 4.0 0.00 0.00 0.00 81 1011.4
20260905144025 65 159 0.0 3.0 0.00 0.00 0.00 83 1011.4
20260905143513 64 148 0.0 2.0 0.00 0.00 0.00 83 1011.4
20260905143024 64 285 0.0 2.0 0.00 0.00 0.00 84 1011.4
20260905142528 64 42 0.0 4.0 0.00 0.00 0.00 84 1011.3
20260905142015 64 297 1.0 5.0 0.00 0.00 0.00 84 1011.3
20260905141532 63 285 1.0 5.0 0.00 0.00 0.00 83 1011.3
20260905141008 63 111 1.0 4.0 0.00 0.00 0.00 83 1011.3
20260905140519 63 302 0.0 4.0 0.00 0.00 0.00 85 1011.3
20260905140021 63 217 0.0 4.0 0.00 0.00 0.00 85 1011.3
20260905135509 63 236 0.0 4.0 0.00 0.00 0.00 85 1011.3
20260905135012 62 129 0.0 5.0 0.00 0.00 0.00 86 1011.3
20260905134520 62 181 0.0 6.0 0.00 0.00 0.00 87 1011.3
20260905134024 62 302 2.0 6.0 0.00 0.00 0.00 87 1011.4
20260905133512 62 288 1.0 6.0 0.00 0.00 0.00 86 1011.4
20260905133020 62 288 2.0 7.0 0.00 0.00 0.00 86 1011.5
20260905132528 62 307 4.0 8.0 0.00 0.00 0.00 86 1011.4
20260905132013 62 266 5.0 8.0 0.00 0.00 0.00 86 1011.4
20260905131522 62 260 2.0 11.0 0.00 0.00 0.00 87 1011.3
20260905131021 62 303 5.0 11.0 0.00 0.00 0.00 86 1011.4
20260905130527 62 278 3.0 10.0 0.00 0.00 0.00 86 1011.5
20260905130014 62 302 4.0 8.0 0.00 0.00 0.00 89 1011.5
20260905125524 61 294 2.0 6.0 0.00 0.00 0.00 89 1011.4
20260905125026 61 290 2.0 6.0 0.00 0.00 0.00 89 1011.4
20260905124616 61 297 0.0 3.0 0.00 0.00 0.00 91 1011.4
20260905124019 60 319 1.0 3.0 0.00 0.00 0.00 90 1011.5
20260905123528 60 288 1.0 4.0 0.00 0.00 0.00 91 1011.3
20260905123019 60 300 1.0 4.0 0.00 0.00 0.00 91 1011.2
20260905122528 60 291 1.0 5.0 0.00 0.00 0.00 91 1011.3
20260905122006 60 266 3.0 5.0 0.00 0.00 0.00 91 1011.2
20260905121522 60 272 2.0 5.0 0.00 0.00 0.00 91 1011.1
20260905121015 60 273 0.0 4.0 0.00 0.00 0.00 91 1011.3
20260905120515 60 337 1.0 6.0 0.00 0.00 0.00 91 1011.4
20260905120014 60 307 3.0 6.0 0.00 0.00 0.00 92 1011.4
20260905115513 60 283 3.0 5.0 0.00 0.00 0.00 92 1011.2
20260905115013 59 302 1.0 4.0 0.00 0.00 0.00 93 1011.1
20260905114514 59 291 1.0 3.0 0.00 0.00 0.00 93 1011.0
20260905114012 59 295 1.0 5.0 0.00 0.00 0.00 93 1011.0
20260905113513 59 300 2.0 5.0 0.00 0.00 0.00 93 1010.9
20260905113011 59 293 2.0 5.0 0.00 0.00 0.00 93 1010.9
20260905112511 59 288 1.0 4.0 0.00 0.00 0.00 94 1010.8
20260905112013 59 293 1.0 3.0 0.00 0.00 0.00 94 1010.8
20260905111510 59 283 0.0 1.0 0.00 0.00 0.00 94 1010.7
20260905111011 59 1 0.0 1.0 0.00 0.00 0.00 94 1010.6
20260905110511 59 356 0.0 1.0 0.00 0.00 0.00 94 1010.6
20260905110010 59 39 0.0 3.0 0.00 0.00 0.00 94 1010.5
20260905105511 59 290 0.0 4.0 0.00 0.00 0.00 93 1010.4
20260905105012 59 302 1.0 4.0 0.00 0.00 0.00 93 1010.3
20260905104508 59 263 0.0 3.0 0.00 0.00 0.00 93 1010.3
20260905104012 59 262 0.0 3.0 0.00 0.00 0.00 93 1010.3
20260905103508 59 290 0.0 3.0 0.00 0.00 0.00 93 1010.3
20260905103008 59 277 0.0 3.0 0.00 0.00 0.00 93 1010.2
20260905102507 59 262 0.0 6.0 0.00 0.00 0.00 93 1010.1
20260905102007 59 295 2.0 6.0 0.00 0.00 0.00 94 1010.1
20260905101506 59 281 0.0 4.0 0.00 0.00 0.00 94 1010.1
20260905101007 59 322 0.0 4.0 0.00 0.00 0.00 94 1010.0
20260905100505 59 289 0.0 0.0 0.00 0.00 0.00 93 1009.9
20260905100005 59 288 0.0 0.0 0.00 0.00 0.00 93 1009.9
20260905095504 60 288 0.0 0.0 0.00 0.00 0.00 93 1009.9
20260905095008 60 288 0.0 2.0 0.00 0.00 0.00 93 1009.8
20260905094503 60 288 0.0 2.0 0.00 0.00 0.00 93 1009.9
20260905094002 60 296 0.0 1.0 0.00 0.00 0.00 93 1009.8
20260905093502 60 328 0.0 2.0 0.00 0.00 0.00 93 1009.8
20260905093001 60 285 0.0 2.0 0.00 0.00 0.00 93 1009.8
20260905092604 61 274 0.0 1.0 0.00 0.00 0.00 93 1009.8
20260905092502 61 274 0.0 1.0 0.00 0.00 0.00 93 1009.7
20260905092100 61 274 0.0 1.0 0.00 0.00 0.00 93 1009.8
20260905091633 61 274 0.0 1.0 0.00 0.00 0.00 93 1009.8
20260905091100 61 274 0.0 1.0 0.00 0.00 0.00 93 1009.7
20260905090559 61 259 0.0 1.0 0.00 0.00 0.00 93 1009.8
20260905090059 61 283 0.0 1.0 0.00 0.00 0.00 93 1009.8
20260905085559 61 261 0.0 2.0 0.00 0.00 0.00 93 1009.8
20260905085059 61 243 0.0 0.0 0.00 0.00 0.00 92 1009.9
20260905084612 61 243 0.0 1.0 0.00 0.00 0.00 92 1009.8
20260905084200 61 243 0.0 1.0 0.00 0.00 0.00 92 1009.8
20260905083557 61 328 0.0 0.0 0.00 0.00 0.00 92 1009.7
20260905083056 61 328 0.0 0.0 0.00 0.00 0.00 92 1009.7
20260905082556 61 328 0.0 1.0 0.00 0.00 0.00 92 1009.8
20260905082055 61 328 0.0 1.0 0.00 0.00 0.00 92 1009.8
20260905081555 61 290 0.0 3.0 0.00 0.00 0.00 92 1010.0
20260905081054 61 295 0.0 3.0 0.00 0.00 0.00 92 1010.0
20260905080553 61 315 0.0 1.0 0.00 0.00 0.00 91 1010.0
20260905080100 61 295 0.0 2.0 0.00 0.00 0.00 91 1010.1
20260905075553 61 295 0.0 2.0 0.00 0.00 0.00 91 1010.2
20260905075054 61 291 0.0 1.0 0.00 0.00 0.00 91 1010.1
20260905074602 62 290 0.0 1.0 0.00 0.00 0.00 91 1010.1
20260905074051 62 293 0.0 1.0 0.00 0.00 0.00 90 1010.0
20260905073551 62 293 0.0 1.0 0.00 0.00 0.00 90 1010.0
20260905073051 62 295 0.0 1.0 0.00 0.00 0.00 90 1010.1
20260905072550 62 295 0.0 0.0 0.00 0.00 0.00 90 1010.1
20260905072049 62 295 0.0 1.0 0.00 0.00 0.00 90 1010.2
20260905071549 62 295 0.0 1.0 0.00 0.00 0.00 90 1010.2
20260905071049 62 353 0.0 1.0 0.00 0.00 0.00 90 1010.2
20260905070548 62 300 0.0 2.0 0.00 0.00 0.00 90 1010.3
20260905070105 62 301 0.0 1.0 0.00 0.00 0.00 89 1010.2
20260905065548 62 271 0.0 1.0 0.00 0.00 0.00 89 1010.2
20260905065047 62 289 0.0 1.0 0.00 0.00 0.00 89 1010.3
20260905064548 62 288 0.0 1.0 0.00 0.00 0.00 89 1010.3
20260905064045 62 292 0.0 2.0 0.00 0.00 0.00 89 1010.5
20260905063545 62 283 0.0 3.0 0.00 0.00 0.00 89 1010.4
20260905063045 62 303 0.0 4.0 0.00 0.00 0.00 89 1010.4
20260905062544 62 300 2.0 4.0 0.00 0.00 0.00 89 1010.5
20260905062043 62 303 0.0 4.0 0.00 0.00 0.00 89 1010.5
20260905061543 62 292 0.0 4.0 0.00 0.00 0.00 89 1010.5
20260905061044 62 271 0.0 1.0 0.00 0.00 0.00 88 1010.5
20260905060544 62 281 0.0 2.0 0.00 0.00 0.00 88 1010.5
20260905060042 62 295 0.0 2.0 0.00 0.00 0.00 88 1010.5
20260905055543 62 228 0.0 1.0 0.00 0.00 0.00 87 1010.5
20260905055041 63 317 0.0 1.0 0.00 0.00 0.00 87 1010.6
20260905054549 63 273 0.0 3.0 0.00 0.00 0.00 87 1010.6
20260905054040 63 316 0.0 3.0 0.00 0.00 0.00 87 1010.7
20260905053539 63 284 0.0 2.0 0.00 0.00 0.00 86 1010.7
20260905053043 63 328 1.0 4.0 0.00 0.00 0.00 86 1010.7
20260905052538 63 281 1.0 4.0 0.00 0.00 0.00 86 1010.8
20260905052039 63 283 1.0 3.0 0.00 0.00 0.00 86 1010.8
20260905051542 63 309 0.0 2.0 0.00 0.00 0.00 86 1010.8
20260905051036 63 308 0.0 2.0 0.00 0.00 0.00 86 1010.9
20260905050535 63 335 0.0 6.0 0.00 0.00 0.00 86 1011.0
20260905050043 63 294 1.0 6.0 0.00 0.00 0.00 85 1010.9
20260905045534 63 276 1.0 3.0 0.00 0.00 0.00 85 1010.9
20260905045035 63 262 0.0 5.0 0.00 0.00 0.00 85 1010.9
20260905044535 63 285 2.0 5.0 0.00 0.00 0.00 85 1010.9
20260905044039 63 282 1.0 5.0 0.00 0.00 0.00 85 1010.9
20260905043533 63 296 1.0 5.0 0.00 0.00 0.00 85 1010.9
20260905043033 62 271 2.0 4.0 0.00 0.00 0.00 86 1011.1
20260905042530 62 289 1.0 3.0 0.00 0.00 0.00 87 1011.0
20260905042028 61 278 0.0 2.0 0.00 0.00 0.00 87 1011.1
20260905041528 61 288 0.0 2.0 0.00 0.00 0.00 88 1011.1
20260905041026 61 302 0.0 2.0 0.00 0.00 0.00 87 1011.2
20260905040527 61 302 0.0 2.0 0.00 0.00 0.00 87 1011.2
20260905040025 61 302 0.0 1.0 0.00 0.00 0.00 87 1011.2
20260905035524 61 302 0.0 1.0 0.00 0.00 0.00 86 1011.2
20260905035025 61 302 0.0 1.0 0.00 0.00 0.00 86 1011.2
20260905034533 61 303 0.0 3.0 0.00 0.00 0.00 86 1011.0
20260905034024 61 302 1.0 3.0 0.00 0.00 0.00 88 1010.9
20260905033524 60 251 0.0 0.0 0.00 0.00 0.00 88 1011.1
20260905033026 60 252 0.0 0.0 0.00 0.00 0.00 88 1011.0
20260905032524 60 252 0.0 0.0 0.00 0.00 0.00 88 1011.0
20260905032023 60 252 0.0 2.0 0.00 0.00 0.00 87 1011.0
20260905031522 60 252 0.0 2.0 0.00 0.00 0.00 87 1010.9
20260905031021 60 56 0.0 1.0 0.00 0.00 0.00 87 1010.9
20260905030522 60 317 0.0 0.0 0.00 0.00 0.00 87 1010.9
20260905030025 61 317 0.0 0.0 0.00 0.00 0.00 87 1011.0
20260905025520 61 318 0.0 0.0 0.00 0.00 0.00 86 1011.0
20260905025020 61 317 0.0 1.0 0.00 0.00 0.00 86 1011.1
20260905024520 61 307 0.0 1.0 0.00 0.00 0.00 86 1011.1
20260905024020 61 315 0.0 0.0 0.00 0.00 0.00 85 1011.1
20260905023518 62 315 0.0 0.0 0.00 0.00 0.00 84 1011.0
20260905023023 62 315 0.0 1.0 0.00 0.00 0.00 83 1011.0
20260905022519 62 294 0.0 2.0 0.00 0.00 0.00 83 1011.1
20260905022017 63 266 0.0 5.0 0.00 0.00 0.00 82 1011.1
20260905021515 63 294 1.0 5.0 0.00 0.00 0.00 82 1011.1
20260905021015 63 277 0.0 3.0 0.00 0.00 0.00 82 1011.1
20260905020514 63 300 0.0 4.0 0.00 0.00 0.00 81 1011.1
20260905020020 63 281 1.0 5.0 0.00 0.00 0.00 81 1011.3
20260905015514 64 276 1.0 5.0 0.00 0.00 0.00 80 1011.3
20260905015018 64 285 0.0 2.0 0.00 0.00 0.00 79 1011.2
20260905014525 64 277 0.0 1.0 0.00 0.00 0.00 79 1011.2
20260905014009 64 302 0.0 2.0 0.00 0.00 0.00 79 1011.3
20260905013513 64 302 0.0 2.0 0.00 0.00 0.00 79 1011.4
20260905013015 64 294 0.0 3.0 0.00 0.00 0.00 79 1011.3
20260905012527 64 276 1.0 3.0 0.00 0.00 0.00 79 1011.3
20260905012010 64 285 0.0 4.0 0.00 0.00 0.00 79 1011.3
20260905011520 64 307 1.0 4.0 0.00 0.00 0.00 78 1011.3
20260905011022 64 290 0.0 4.0 0.00 0.00 0.00 78 1011.3
20260905010511 64 290 0.0 3.0 0.00 0.00 0.00 78 1011.3
20260905010015 65 276 0.0 3.0 0.00 0.00 0.00 78 1011.3
20260905005524 65 260 0.0 3.0 0.00 0.00 0.00 78 1011.3
20260905005011 65 298 0.0 2.0 0.00 0.00 0.00 78 1011.3
20260905004519 65 255 0.0 3.0 0.00 0.00 0.00 79 1011.3
20260905004026 65 288 0.0 4.0 0.00 0.00 0.00 79 1011.4
20260905003515 65 289 0.0 3.0 0.00 0.00 0.00 79 1011.3
20260905003015 65 303 0.0 3.0 0.00 0.00 0.00 79 1011.2
20260905002525 65 307 0.0 1.0 0.00 0.00 0.00 79 1011.2
20260905002009 65 307 0.0 4.0 0.00 0.00 0.00 78 1011.1
20260905001519 65 293 1.0 4.0 0.00 0.00 0.00 77 1011.1
20260905001019 65 285 0.0 1.0 0.00 0.00 0.00 77 1011.0
20260905000507 66 291 0.0 1.0 0.00 0.00 0.00 77 1011.0
20260905000015 66 278 0.0 2.0 0.00 0.00 0.00 76 1011.0
20260904235526 66 295 0.0 2.0 0.00 0.00 0.00 75 1010.9
20260904235009 67 278 0.0 4.0 0.00 0.00 0.00 74 1010.8
20260904234533 67 297 1.0 4.0 0.00 0.00 0.00 74 1010.8
20260904234020 67 297 1.0 4.0 0.00 0.00 0.00 73 1010.8
20260904233510 67 314 1.0 7.0 0.00 0.00 0.00 72 1010.8
20260904233015 68 302 3.0 6.0 0.00 0.00 0.00 72 1010.8
20260904232625 68 283 2.0 6.0 0.00 0.00 0.00 72 1010.8
20260904232013 68 309 2.0 8.0 0.00 0.00 0.00 71 1010.8
20260904231519 69 277 3.0 10.0 0.00 0.00 0.00 70 1010.8
20260904231022 69 314 4.0 9.0 0.00 0.00 0.00 69 1010.8
20260904230511 70 276 3.0 7.0 0.00 0.00 0.00 70 1010.7
20260904230016 70 267 3.0 9.0 0.00 0.00 0.00 68 1010.8
20260904225522 70 298 5.0 9.0 0.00 0.00 0.00 67 1010.7
20260904225011 71 275 3.0 11.0 0.00 0.00 0.00 66 1010.7
20260904224520 71 277 5.0 11.0 0.00 0.00 0.00 66 1010.6
20260904224016 71 301 5.0 10.0 0.00 0.00 0.00 66 1010.7
20260904223527 71 274 3.0 11.0 0.00 0.00 0.00 66 1010.5
20260904223015 71 291 4.0 12.0 0.00 0.00 0.00 65 1010.6
20260904222517 72 305 5.0 12.0 0.00 0.00 0.00 65 1010.4
20260904222019 72 285 4.0 12.0 0.00 0.00 0.00 64 1010.3
20260904221532 72 326 5.0 9.0 0.00 0.00 0.00 64 1010.3
20260904221013 72 301 4.0 12.0 0.00 0.00 0.00 66 1010.3
20260904220519 72 304 8.0 12.0 0.00 0.00 0.00 64 1010.4
20260904220021 72 294 4.0 13.0 0.00 0.00 0.00 64 1010.4
20260904215525 72 266 6.0 18.0 0.00 0.00 0.00 62 1010.4
20260904215012 72 300 8.0 18.0 0.00 0.00 0.00 63 1010.4
20260904214522 72 266 6.0 13.0 0.00 0.00 0.00 64 1010.4
20260904214022 72 269 5.0 13.0 0.00 0.00 0.00 63 1010.5
20260904213512 73 284 5.0 12.0 0.00 0.00 0.00 63 1010.5
20260904213016 73 302 7.0 12.0 0.00 0.00 0.00 63 1010.3
20260904212521 72 314 5.0 12.0 0.00 0.00 0.00 65 1010.3
20260904212009 72 297 6.0 12.0 0.00 0.00 0.00 62 1010.4
20260904211516 72 301 7.0 13.0 0.00 0.00 0.00 64 1010.4
20260904211018 72 288 7.0 15.0 0.00 0.00 0.00 62 1010.5
20260904210525 72 296 7.0 15.0 0.00 0.00 0.00 63 1010.6
20260904210011 72 291 6.0 11.0 0.00 0.00 0.00 63 1010.6
20260904205521 72 269 4.0 12.0 0.00 0.00 0.00 61 1010.6
20260904205022 72 300 5.0 14.0 0.00 0.00 0.00 61 1010.6
20260904204511 73 315 8.0 13.0 0.00 0.00 0.00 61 1010.6
20260904204017 73 138 3.0 13.0 0.00 0.00 0.00 62 1010.5
20260904203526 73 289 5.0 17.0 0.00 0.00 0.00 63 1010.5
20260904203013 73 257 9.0 17.0 0.00 0.00 0.00 60 1010.6
20260904202517 73 297 7.0 15.0 0.00 0.00 0.00 61 1010.6
20260904202020 74 309 6.0 16.0 0.00 0.00 0.00 63 1010.6
20260904201524 74 293 6.0 17.0 0.00 0.00 0.00 63 1010.6
20260904201011 74 263 11.0 17.0 0.00 0.00 0.00 62 1010.7
20260904200518 74 266 10.0 17.0 0.00 0.00 0.00 62 1010.5
20260904200016 74 285 2.0 7.0 0.00 0.00 0.00 64 1010.5
20260904195525 74 309 1.0 4.0 0.00 0.00 0.00 65 1010.5
20260904195011 74 347 1.0 6.0 0.00 0.00 0.00 64 1010.4
20260904194519 74 285 2.0 10.0 0.00 0.00 0.00 65 1010.4
20260904194009 73 271 1.0 15.0 0.00 0.00 0.00 68 1010.4
20260904193516 73 267 4.0 14.0 0.00 0.00 0.00 65 1010.5
20260904193023 74 300 6.0 14.0 0.00 0.00 0.00 64 1010.6
20260904192532 74 276 1.0 12.0 0.00 0.00 0.00 63 1010.7
20260904192018 74 281 7.0 16.0 0.00 0.00 0.00 64 1010.7
20260904191525 74 293 9.0 16.0 0.00 0.00 0.00 62 1010.6
20260904191008 75 277 9.0 14.0 0.00 0.00 0.00 65 1010.6
20260904190516 75 285 6.0 12.0 0.00 0.00 0.00 63 1010.6
20260904190024 74 283 5.0 12.0 0.00 0.00 0.00 61 1010.7
20260904185525 74 288 4.0 13.0 0.00 0.00 0.00 63 1010.7
20260904185012 74 250 5.0 20.0 0.00 0.00 0.00 62 1010.7
20260904184517 74 271 7.0 20.0 0.00 0.00 0.00 61 1010.9
20260904184019 74 293 4.0 10.0 0.00 0.00 0.00 62 1010.9
20260904183509 74 215 2.0 13.0 0.00 0.00 0.00 65 1010.9
20260904183015 73 264 6.0 13.0 0.00 0.00 0.00 62 1010.9
20260904182525 73 276 6.0 13.0 0.00 0.00 0.00 67 1011.0
20260904182008 73 264 5.0 10.0 0.00 0.00 0.00 66 1010.9
20260904181521 73 250 3.0 10.0 0.00 0.00 0.00 66 1011.0
20260904181019 73 277 4.0 10.0 0.00 0.00 0.00 67 1011.1
20260904180524 72 289 3.0 10.0 0.00 0.00 0.00 69 1011.2
20260904180014 71 240 5.0 11.0 0.00 0.00 0.00 68 1011.2
20260904175519 71 275 6.0 11.0 0.00 0.00 0.00 67 1011.2
20260904175023 71 255 3.0 8.0 0.00 0.00 0.00 69 1011.4
20260904174512 72 326 0.0 10.0 0.00 0.00 0.00 68 1011.4
20260904174016 72 303 6.0 12.0 0.00 0.00 0.00 66 1011.3
20260904173523 72 242 6.0 12.0 0.00 0.00 0.00 65 1011.5
20260904173008 72 307 3.0 9.0 0.00 0.00 0.00 67 1011.5
20260904172519 72 276 1.0 13.0 0.00 0.00 0.00 70 1011.5
20260904172019 72 298 8.0 13.0 0.00 0.00 0.00 65 1011.5
20260904171509 73 307 6.0 12.0 0.00 0.00 0.00 64 1011.5
20260904171014 72 283 0.0 9.0 0.00 0.00 0.00 63 1011.4
20260904170519 73 281 1.0 9.0 0.00 0.00 0.00 64 1011.5
20260904170022 73 282 1.0 8.0 0.00 0.00 0.00 67 1011.4
20260904165528 72 79 1.0 9.0 0.00 0.00 0.00 66 1011.4
20260904165013 72 325 2.0 8.0 0.00 0.00 0.00 66 1011.4
20260904164517 71 297 3.0 7.0 0.00 0.00 0.00 67 1011.3
20260904164013 72 310 2.0 7.0 0.00 0.00 0.00 68 1011.4
20260904163527 72 210 0.0 10.0 0.00 0.00 0.00 68 1011.4
20260904163009 71 285 4.0 13.0 0.00 0.00 0.00 70 1011.4
20260904162518 71 277 2.0 13.0 0.00 0.00 0.00 71 1011.5
20260904162021 71 301 5.0 10.0 0.00 0.00 0.00 72 1011.6
20260904161507 71 288 4.0 9.0 0.00 0.00 0.00 70 1011.7
20260904161012 71 288 4.0 7.0 0.00 0.00 0.00 72 1011.6
20260904160521 71 291 1.0 7.0 0.00 0.00 0.00 73 1011.7
20260904160018 71 307 4.0 12.0 0.00 0.00 0.00 73 1011.8
20260904155518 70 336 4.0 12.0 0.00 0.00 0.00 73 1011.9
20260904155023 70 293 4.0 7.0 0.00 0.00 0.00 73 1011.8